Tracking 18843 objects as of 21-November-2017
HD Live streaming from Space Station
objects crossing your sky now

FENGYUN 1C DEB

Track FENGYUN 1C DEB now!
10-day predictions


NORAD ID: 33728
Int'l Code: 1999-025DHR
Perigee: 520.1 km
Apogee: 813.9 km
Inclination: 99.0 °
Period: 97.9 minutes
Semi major axis: 7037 km
RCS: 0.0056 m2 (small)
Launch date: May 10, 1999
Source: People's Republic of China (PRC)
Launch site: Taiyaun Space Center, China (TSC)

Note: This is SATELLITE DEBRIS
aabbcc
Your satellite tracking list
Your tracking list is empty




NASA's NSSDC Master Catalog

Two Line Element Set (TLE):
1 33728U 99025DHR 17324.34588227 +.00000490 +00000-0 +66824-4 0  9997
2 33728 098.9977 011.0797 0208682 061.5870 358.5937 14.70378734548834
Source of the keplerian elements: AFSPC